Preview of NWS' New Version of Forecast
This preview is not operational and should not be used for support decisions.
Latest weather observations around

Seattle, Seattle Boeing Field (KBFI)

Using English Units (Switch to International System of Units)
Date/ Time (PST) Wind (mph) Vis. (mi) Weather Sky Cond. Temp (°F) Rel. Humidity Wind Chill (°F) Heat Index (°F) Pressure Precip. (in)
Air Dwpt 6 hour Altimeter (inHg) Sea level (inHg) 1 hr 3 hr 6 hr
Max Min
Feb 22 00:53 Calm 10 Cloudy SCT015 OVC044 32 30     92%     30.2 30.19 0 0  
Feb 21 23:53 Calm 2.5 Light Snow and Fog/Mist SCT007 BKN018 OVC035 31 30     96%     30.19 30.19 0    
Feb 21 22:53 ESE 5 1.75 Light Snow and Fog/Mist BKN007 OVC023 32 30     92% 27   30.19 30.19 0    
Feb 21 21:53 SE 7 2 Light Snow and Fog/Mist BKN009 OVC023 32 30     92% 26   30.19 30.19 0   0
Feb 21 20:53 SE 7 2 Light Snow and Fog/Mist BKN009 BKN018 OVC025 32 30     92% 26   30.19 30.19 0    
Feb 21 19:53 SE 7 2 Light Snow and Fog/Mist BKN009 OVC016 32 30     92% 26   30.2 30.19 0    
Feb 21 18:56 SSE 7 1.75 Light Snow and Fog/Mist BKN006 BKN026 OVC032 32 29     88% 26   30.21   0    
Feb 21 18:53 SSE 8 1.75 Light Snow and Fog/Mist BKN010 BKN028 OVC034 32 29     88% 25   30.21 30.21 0 0  
Feb 21 18:29 SE 6 6 Fog/Mist BKN010 BKN028 OVC034 32 28     85% 26   30.22        
Feb 21 17:53 SE 11 10 Cloudy BKN031 OVC060 32 28     85% 23   30.22 30.22      
Feb 21 16:53 SE 8 10 Cloudy FEW022 OVC065 34 26     72% 27   30.24 30.24      
Feb 21 15:53 SSE 9 10 Cloudy SCT025 SCT045 OVC065 35 26     69% 28   30.26 30.26      
Feb 21 14:53 S 8 10 Cloudy OVC070 35 23     61% 29   30.28 30.27      
Feb 21 13:53 S 5 10 Cloudy OVC085 34 22     61% 30   30.29 30.29      
Feb 21 12:53 S 7 10 Cloudy FEW050 OVC100 34 22     61% 28   30.31 30.3      
Feb 21 11:53 WSW 7 10 Cloudy BKN050 OVC110 35 22     58% 29   30.32 30.32      
Feb 21 10:53 SE 7 10 Partly Cloudy SCT110 33 18     53% 27   30.32 30.32      
Feb 21 09:53 SSE 9 10 Mostly Clear FEW110 32 17     54% 24   30.34 30.33      
Feb 21 08:53 SSE 6 10 Clear CLR 29 18     63% 23   30.35 30.35      
Feb 21 07:53 SSE 6 10 Clear CLR 27 18     68% 20   30.35 30.35      
Feb 21 06:53 ESE 3 10 Clear CLR 27 16     63% 23   30.34 30.34      
Feb 21 05:53 Calm 10 Clear CLR 24 20     84%     30.33 30.33      
Feb 21 04:53 Calm 10 Clear CLR 25 21     85%     30.34 30.34      
Feb 21 03:53 SE 3 10 Clear CLR 25 21     85% 21   30.33 30.32      
Feb 21 02:53 Calm 10 Clear CLR 27 20     75%     30.33 30.33      
Feb 21 01:53 Calm 10 Clear CLR 29 22     75%     30.34 30.34      
Feb 21 00:53 Calm 10 Clear CLR 30 23     75%     30.33 30.32      
Feb 20 23:53 Calm 10 Clear CLR 31 24     75%     30.31 30.31      
Feb 20 22:53 ENE 3 10 Clear CLR 32 23     69% 29   30.29 30.29      
Feb 20 21:53 NE 3 10 Clear CLR 32 23     69% 29   30.28 30.27     0
Feb 20 20:53 NNE 3 10 Mostly Clear FEW070 33 22     63% 30   30.26 30.26      
Feb 20 19:53 N 3 10 Partly Cloudy SCT055 34 23     64% 31   30.25 30.25      
Feb 20 18:53 N 5 10 Partly Cloudy SCT035 35 23     61% 31   30.24 30.24   0  
Feb 20 17:53 N 7 10 Cloudy BKN060 OVC080 35 25     66% 29   30.23 30.22 0    
Feb 20 16:53 NNE 5 10 Light Snow SCT055 BKN075 35 27     72% 31   30.21 30.21 0    
Feb 20 16:19 N 6 5 Light Snow SCT018 BKN042 OVC050 35 29     78% 30   30.21   0    
Feb 20 15:53 NNE 7 5 Light Snow BKN022 BKN031 OVC055 36 29     75% 30   30.2 30.2 0   0
Feb 20 14:53 3 9 Light Snow SCT050 OVC070 36 24     62% 33   30.19 30.18 0    
Feb 20 13:53 Calm 9 Light Snow BKN043 BKN050 OVC065 36 26     67%     30.19 30.19 0    
Feb 20 12:53 Calm 9 Light Snow BKN038 OVC050 35 26     69%     30.2 30.2 0 0  
Feb 20 11:53 3 10 Light Snow SCT028 SCT034 OVC042 35 25     66% 32   30.21 30.21 0    
Feb 20 10:53 S 5 10 Cloudy FEW015 OVC075 35 24     64% 31   30.21 30.2      
Feb 20 09:53 SE 3 10 Cloudy FEW015 BKN075 OVC090 34 22     61% 31   30.2 30.2      
Feb 20 08:53 SSE 5 10 Cloudy OVC080 32 22     66% 27   30.19 30.19      
Feb 20 07:53 SE 5 10 Cloudy OVC100 30 21     69% 25   30.19 30.19      
Feb 20 06:53 SE 3 10 Cloudy OVC130 30 20     66% 27   30.19 30.19      
Feb 20 05:53 Calm 10 Clear CLR 28 20     71%     30.2 30.19      
Feb 20 04:53 SE 3 10 Partly Cloudy FEW100 SCT120 29 19     66% 25   30.21 30.21      
Feb 20 03:53 Calm 10 Mostly Cloudy BKN110 29 19     66%     30.21 30.21      
Feb 20 02:53 SE 5 10 Partly Cloudy FEW042 SCT110 29 19     66% 24   30.22 30.22      
Feb 20 01:53 SSE 5 10 Clear CLR 28 20     71% 23   30.22 30.22      
Feb 20 00:53 SSE 7 10 Mostly Clear FEW048 28 19     69% 21   30.23 30.23      
Feb 19 23:53 SE 5 10 Partly Cloudy SCT047 29 19     66% 24   30.23 30.23      
Feb 19 22:53 SE 5 10 Clear CLR 30 17     58% 25   30.23 30.23      
Feb 19 21:53 SE 7 10 Partly Cloudy SCT060 29 18     63% 22   30.24 30.24      
Feb 19 20:53 Calm 10 Clear CLR 30 16     55%     30.24 30.23      
Feb 19 19:53 Calm 10 Clear CLR 32 14     47%     30.23 30.22      
Feb 19 18:53 Calm 10 Clear CLR 33 12     41%     30.21 30.21      
Feb 19 17:53 Calm 10 Clear CLR 35 12     38%     30.21 30.21      
Feb 19 16:53 WNW 7 10 Clear CLR 35 13     40% 29   30.22 30.22      
Feb 19 15:53 NW 8 10 Clear CLR 36 14     40% 30   30.22 30.22      
Feb 19 14:53 NW 9 10 Mostly Clear FEW200 36 12     37% 29   30.22 30.22      
Feb 19 13:53 NNW 10 10 Clear CLR 37 12     35% 30   30.23 30.22      
Feb 19 12:53 NNW 15 10 Clear CLR 37 12     35% 28   30.23 30.23      
Feb 19 11:53 NNW 7 10 Mostly Clear FEW060 36 10     34% 30   30.24 30.24      
Feb 19 10:53 NNW 8 10 Clear CLR 35 13     40% 29   30.24 30.24      
Feb 19 09:53 NW 8 10 Clear CLR 33 15     47% 26   30.23 30.22      
Feb 19 08:53 NNW 5 10 Clear CLR 33 17     51% 29   30.21 30.21      
Feb 19 07:53 N 7 10 Partly Cloudy SCT060 31 18     58% 24   30.2 30.19      
Feb 19 06:53 NNW 11 10 Partly Cloudy SCT050 31 14     49% 22   30.17 30.17      
Feb 19 05:53 7 10 Mostly Cloudy BKN085 31 12     45% 24   30.15 30.14      
Feb 19 04:53 NNE 10 10 Cloudy OVC060 32 14     47% 24   30.12 30.12      
Feb 19 03:53 N 6 10 Cloudy OVC055 33 14     45% 28   30.09 30.09      
Feb 19 02:53 7 10 Cloudy OVC049 33 14     45% 27   30.07 30.07      
Feb 19 01:53   10 Cloudy OVC045 33 15     47%     30.05 30.05      
Feb 19 00:53 NNW 10 10 Cloudy OVC065 33 18     53% 25   30.03 30.03      
Jun 12 03:53 SSE 8 10 Mostly Cloudy BKN060 53 51     93%     30 30      
Jun 12 02:53 SSE 7 10 Mostly Cloudy BKN055 54 51     90%     30 29.99      
Jun 11 22:53 Calm 10 Clear CLR 61 49     64%     29.99 29.99      
Jun 11 14:53 NW 8 10 Clear   69 48     47%     30 29.99      
Jun 11 01:53 Calm 10 Mostly Cloudy BKN085 57 47     69%     29.97 29.97      
Jun 10 23:53 Calm 10 Cloudy OVC075 59 47     64%     29.95 29.95      
Jun 10 15:53 NNW 7 10 Clear   65 44     47%     29.85 29.85      
Jun 08 08:44 SSE 8 10 Light Rain SCT007 BKN038 OVC095 57 57     100%     29.66   0    
Jun 07 14:53 6 10 Cloudy SCT140 OVC250 79 54     42%   79 29.69 29.69      
Jun 06 00:53 3 10 Clear CLR 60 46     60%     30.04 30.04      
Jun 05 20:53 NW 6 10 Clear CLR 65 46     50%     30.05 30.05      
Jun 05 19:53 NW 6 10 Mostly Cloudy BKN200 67 47     49%     30.05 30.05      
Jun 05 15:53 WNW 9 10 Mostly Cloudy BKN250 71 45     39%   70 30.08 30.07